Voltar ao catálogo

CZ-6A DEB

AtivoPO
NORAD 60874·DEBRIS·🇨🇳 China

Lançado Aug 6, 2024 de Taiyuan Satellite Launch Center

Loading…

Próximas Passagens (próximas 24 horas)

TLE

AtualizadoSource: Space-Track

Época: Sep 14, 2026, 10:30 UTC

1 60874U 24140KD  26257.43750489  .00000895  00000-0  20158-3 0  9999
2 60874  88.8778 248.5589 0099353 326.1061  33.3822 14.52545282110317

Acompanhe CZ-6A DEB em tempo real com AllMySat

Download on the App Store